Погода в Элькуше

Россия / Карачаево-Черкесская Республика     43°51′44″N   42°38′42″E
темп.,
°C
ветер,
м/с
пор.,
м/с
влажн.,
%
обл.,
%
осадки,
мм/ч
давл.,
гПа
погр.,
м
15 апреля, чт
чт1500:00−1юз338123 0.0 102029
03:00−2юз327420 0.0 102118
06:00−1юз336549 0.0 102124
09:00+5всв10568 0.0 1018379
12:00+8в225193 0.0 10161063
15:00+8в2253100 0.1 10161227
18:00+6вюв2474100 0.0 1018313
21:00+3ююз2281100 0.0 102032
16 апреля, пт
пт1600:00+3ююз2275100 0.0 101922
03:00+2ююз226639 0.0 101913
06:00+2ююз326441 0.0 101920
09:00+8вюв235892 0.0 1017589
12:00+10вюв335321 0.0 10151248
15:00+10в335994 0.8 1015785
18:00+6ссв2392100 2.4 1018247
21:00+5юв119286 3.1 102088
17 апреля, сб
сб1700:00+4ю229153 0.0 101930
03:00+4ююз1176100 0.0 101816
06:00+4ссз1191100 0.0 102083
09:00+2с2298100 1.4 1023282
12:00+3всв2298100 0.1 1022375
15:00+3в2297100 0.3 1022375
18:00+2ссв2199100 0.3 1023286
21:00+2вюв1199100 1.1 1023258
18 апреля, вс
вс1800:00+3ю1196100 0.0 1021102
03:00+3ююв1194100 0.0 102015
06:00+4ю1087100 0.0 101911
09:00+8в1168100 0.0 1016425
12:00+11ссв3370100 0.1 1014555
15:00+10всв3284100 0.9 1014428
18:00+7св229893 2.1 1016246
21:00+6св1199100 2.9 1018199
19 апреля, пн
пн1900:00+6с019768 0.0 1018102
03:00+5зюз019199 0.1 1019212
06:00+4сз0096100 0.0 102089
09:00+8св218287 0.0 1018607
12:00+8св218496 0.1 1019500
15:00+8св3288100 0.6 1019487
18:00+7вюв2398100 0.1 1020246
21:00+6юв339895 0.1 1020168